Find Kosmos-1704

NORAD ID: 16291 Int'l Des: 1985-110 Owner: VMF Country: SU operational
LEOCIRCULARPOLAR

Aktuelle Ansicht

3D-Globus wird geladen...

About Kosmos-1704

Kosmos-1704 (NORAD 16291) is a satellite launched Nov 28, 1985 by VMF of SU. It operates in LEO, CIRCULAR, POLAR orbit with a mass of 800.00 kg.

Nächste Überflüge

Passes for default location (London). Set your location on the main map for personalized predictions.

Höhenverlauf

Loading altitude history...

Zweizeiliger Elementsatz

1 16291U 85110A 26195.15535259 .00000045 00000-0 31155-4 0 9990
2 16291 82.9356 104.7579 0030562 345.2273 124.9398 13.74890393 37631
Epoch: 14. Juli 2026 • Age: 12 hours

Aktueller Status

Höhe 995.9 km
Apogäum / Perigäum N/A
Geschwindigkeit 7.36 km/s
Subsatellitenpunkt 74.94°N, 37.72°W
Startdatum 28. Nov. 1985
Alter 40.6 years
Typ other

Technische Details

Klassifizierung Payload
Masse 800.00 kg
Trockenmasse 800.00 kg
Gesamtmasse 800.00 kg
Länge 5.00 m
Durchmesser 2.10 m
Spannweite 17.00 m
Form Cyl + Ant
Hersteller OAZ
Bus-Typ KAUR-1 11F627
Phasenstatus In Orbit
Besitzer/Staat VMF/SU

Most Searched